Regional Weather Roundup
Issued by NWS Goodland, KS

Home | Current Version | Previous Version | Text Only | Print | Product List | Glossary Off
Versions: 1 2 3 4 5 6 7 8 9 10 11 12 13 14 15 16 17 18 19 20 21 22 23 24 25 26 27 28 29 30 31 32 33 34 35 36 37 38 39 40 41 42 43 44 45 46 47 48 49 50

000
ASUS43 KGLD 010108
RWRGLD

GOODLAND FORECAST AREA HOURLY WEATHER ROUNDUP
NATIONAL WEATHER SERVICE GOODLAND KS
700 PM MDT MON AUG 31 2015

...OFFICIAL OBSERVATIONS...

CITY           SKY/WX    TMP DP  RH WIND       PRES   REMARKS
GOODLAND KS    PTCLDY    85  50  29 SE6       29.92S
HILL CITY KS   CLEAR     91  50  24 S9        29.86S
IMPERIAL NEB   MOCLDY    82  60  47 N8        29.92S
MCCOOK NEB     CLEAR     85  63  47 NE8       29.86S
AKRON CO       CLOUDY    80  48  32 E8        30.04R
BURLINGTON CO  PTCLDY    82  52  35 E8        29.97R
LIMON CO       TSTM      61  56  83 W22G33    30.13R
$$

...UNOFFICIAL OBSERVATIONS...

CITY           SKY/WX    TMP DP  RH WIND       PRES   REMARKS
COLBY KS       CLEAR     88  55  33 SE9       29.91S
GOVE KS          N/A     88  32  13 MISG        N/A
LENORA KS        N/A     88  32  13 MISG        N/A
NORTON KS      CLEAR     82  48  30 S5        29.85S
SHARON SPRINGS   N/A     85  56  36 SE10        N/A
TRENTON NEB      N/A     84  32  15 NE8         N/A
KIT CARSON CO    N/A     85  53  32 MISG        N/A
YUMA CO          N/A     80  53  38 CALM        N/A
$$


USA.gov is the U.S. government's official web portal to all federal, state and local government web resources and services.